Regional Weather Roundup
Issued by NWS Goodland, KS

Home | Current Version | Previous Version | Graphics & Text | Print | Product List | Glossary On
Versions: 1 2 3 4 5 6 7 8 9 10 11 12 13 14 15 16 17 18 19 20 21 22 23 24 25 26 27 28 29 30 31 32 33 34 35 36 37 38 39 40 41 42 43 44 45 46 47 48 49 50
000
ASUS43 KGLD 270008
RWRGLD

GOODLAND FORECAST AREA HOURLY WEATHER ROUNDUP
NATIONAL WEATHER SERVICE GOODLAND KS
500 PM MST THU FEB 26 2015

...OFFICIAL OBSERVATIONS...

CITY           SKY/WX    TMP DP  RH WIND       PRES   REMARKS
GOODLAND KS    CLOUDY    18   6  59 NE6       30.29S
HILL CITY KS   CLEAR     21  -8  27 NE9       30.40S
IMPERIAL NEB     N/A     19   0  43 NE10      30.32S WCI   7
MCCOOK NEB     PTCLDY    23  -3  32 NE10      30.37S WCI  12
AKRON CO       CLOUDY    12   8  84 E8        30.20S
BURLINGTON CO  MOCLDY    16   7  67 E10       30.24S WCI   4
LIMON CO       SNOW      13  10  88 S10       30.13S VSB 1/2 WCI   0
$$

...UNOFFICIAL OBSERVATIONS...

CITY           SKY/WX    TMP DP  RH WIND       PRES   REMARKS
COLBY KS       PTCLDY    19   7  58 N9        30.32F
GOVE KS          N/A     21  32 100 MISG        N/A
LENORA KS        N/A     19  32 100 S9          N/A
NORTON KS      CLEAR     19 -13  23 N8        30.39R
SHARON SPRINGS   N/A     19  11  70 CALM        N/A
KIT CARSON CO    N/A     17  12  79 MISG        N/A
YUMA CO          N/A     15   7  71 CALM        N/A
$$



USA.gov is the U.S. government's official web portal to all federal, state and local government web resources and services.